星链-5267 (STARLINK-5267 )

导读

STARLINK-5267是美国太空探索技术公司(SpaceX)星链互联网卫星星座中的一颗卫星,于2023年2月17日发射入轨,属于星链低轨卫星组网计划的一部分。它部署在近地轨道,旨在为全球提供高速低延迟的宽带互联网服务,是SpaceX推进大规模星座部署、完成全球覆盖目标进程中发射的卫星之一。

基本信息
目录编号:
55655
目录名称:
STARLINK-5267
国际标识:
2023-021AD
轨道中心:
EARTH
卫星名称:
星链-5267
卫星全名:
星链-5267 (STARLINK-5267 )
卫星状态:
在轨 (已飞行1296 天)
发射日期:
2023-02-17 UTC
国别 :
美国 (US)
星等 :
--
轨道信息
数据来源 国际轨道数据 AOE轨道数据
星历时间 2026-09-03T22:48:59+0800
1天前
查看轨道信息
2026-08-30T18:00:00+0800
5天前
查看轨道信息
半长轴 6950.192km 6950.159km
偏心率 0.0002538 0.0000239
轨道倾角 69.999° 70.000°
近地点辐角 269.505° 327.599°
升交点赤经 75.948° 86.539°
平近点角 90.582° 60.520°
近地点 570.291km 571.855km
远地点 573.819km 572.189km
周期 96.107分钟 96.106分钟
每日圈数 14.983305 14.98341
详细信息
固有亮度:
5
最大亮度:
2.5
卫星平台:
Starlink v1.5
覆盖范围:
全球
运营商:
太空探索技术公司
运营商所在国:
美国
制造商(研发单位):
太空探索技术公司
制造商所在国:
美国
使用方式:
暂无
卫星简介
星链(Starlink)计划是由太空探索技术公司(SpaceX)提出的一个巨型低轨卫星互联网星座项目,计划在2019年至2024年间在太空搭建由约1.2万颗卫星组成的“星链”网络,其中1584颗将部署在地球上空550千米处的近地轨道,并从2020年开始工作。该卫星仍在工作。
2D轨道图
3D轨道图
轨道高度分析图
轨道倾角分析图
轨道综合分析图
查看轨道综合分析图